GW2443 Weather Reports


time (UTC)temp
C
wind
direction
speed
KPH
gust
KPH
rain 1hr
cm
rain 24hr
cm
rain mn
cm
humidity
%
barometer
mb
20260906123051 16 343 3.2 6.4 0.00 0.00 0.00 94 1020.2
20260906122533 16 5 1.6 6.4 0.00 0.00 0.00 94 1020.1
20260906122031 16 5 3.2 6.4 0.00 0.00 0.00 94 1019.9
20260906121549 16 23 1.6 6.4 0.00 0.00 0.00 94 1019.8
20260906121028 16 10 3.2 6.4 0.00 0.00 0.00 94 1019.8
20260906120530 16 34 3.2 6.4 0.00 0.00 0.00 94 1019.9
20260906120109 16 9 3.2 6.4 0.00 0.00 0.00 94 1019.8
20260906115530 15 26 0.0 6.4 0.00 0.00 0.00 94 1019.9
20260906115029 15 0 1.6 6.4 0.00 0.00 0.00 94 1019.8
20260906114555 15 355 1.6 6.4 0.00 0.00 0.00 94 1019.8
20260906114033 15 360 1.6 6.4 0.00 0.00 0.00 94 1020.0
20260906113530 15 20 3.2 6.4 0.00 0.00 0.00 94 1019.8
20260906113051 16 5 3.2 6.4 0.00 0.00 0.00 94 1019.7
20260906112529 15 20 3.2 6.4 0.00 0.00 0.00 94 1019.6
20260906112031 15 355 3.2 4.8 0.00 0.00 0.00 94 1019.3
20260906111559 16 16 1.6 4.8 0.00 0.00 0.00 94 1019.2
20260906111030 15 0 0.0 3.2 0.00 0.00 0.00 94 1019.0
20260906110532 16 0 0.0 6.4 0.00 0.00 0.00 94 1018.9
20260906110056 16 352 1.6 6.4 0.00 0.00 0.00 94 1018.9
20260906105528 16 5 0.0 3.2 0.00 0.00 0.00 94 1018.9
20260906105030 16 0 0.0 4.8 0.00 0.00 0.00 94 1018.9
20260906104551 16 360 0.0 4.8 0.00 0.00 0.00 94 1018.9
20260906104030 16 0 1.6 4.8 0.00 0.00 0.00 94 1018.9
20260906103529 16 360 1.6 4.8 0.00 0.00 0.00 94 1018.9
20260906103054 16 9 1.6 4.8 0.00 0.00 0.00 94 1018.9
20260906102531 16 9 0.0 4.8 0.00 0.00 0.00 94 1018.9
20260906102030 16 32 0.0 4.8 0.00 0.00 0.00 94 1019.0
20260906101547 16 28 0.0 4.8 0.00 0.00 0.00 94 1019.0
20260906101030 16 5 0.0 3.2 0.00 0.00 0.00 95 1018.9
20260906100533 16 0 0.0 3.2 0.00 0.00 0.00 95 1018.9
20260906100054 16 21 0.0 4.8 0.00 0.00 0.00 95 1018.9
20260906095530 16 0 0.0 4.8 0.00 0.00 0.00 95 1018.7
20260906095030 16 26 1.6 4.8 0.00 0.00 0.00 95 1019.0
20260906094552 16 0 0.0 3.2 0.00 0.00 0.00 95 1019.0
20260906094028 16 9 1.6 4.8 0.00 0.00 0.00 95 1019.1
20260906093529 16 10 0.0 4.8 0.00 0.00 0.00 95 1019.2
20260906093058 16 12 1.6 4.8 0.00 0.00 0.00 95 1019.1
20260906092530 16 0 1.6 4.8 0.00 0.00 0.00 95 1018.9
20260906092032 16 11 1.6 6.4 0.00 0.00 0.00 95 1018.9
20260906091548 16 30 1.6 6.4 0.00 0.00 0.00 95 1018.9
20260906091030 16 355 1.6 4.8 0.00 0.00 0.00 95 1018.9
20260906090530 16 14 1.6 4.8 0.00 0.00 0.00 95 1018.9
20260906090108 16 15 1.6 3.2 0.00 0.00 0.00 95 1018.8
20260906085530 16 23 0.0 3.2 0.00 0.00 0.00 95 1018.6
20260906085030 16 0 0.0 4.8 0.00 0.00 0.00 95 1018.5
20260906084551 17 0 1.6 4.8 0.00 0.00 0.00 95 1018.7
20260906084031 17 0 0.0 4.8 0.00 0.00 0.00 95 1018.8
20260906083531 17 0 0.0 4.8 0.00 0.00 0.00 94 1018.8
20260906083050 17 11 1.6 4.8 0.00 0.00 0.00 95 1018.9
20260906082531 17 360 1.6 4.8 0.00 0.00 0.00 95 1018.8
20260906082028 17 12 0.0 4.8 0.00 0.00 0.00 94 1018.8
20260906081554 17 17 1.6 4.8 0.00 0.00 0.00 94 1018.7
20260906081034 17 9 1.6 4.8 0.00 0.00 0.00 94 1018.6
20260906080530 17 16 0.0 3.2 0.00 0.00 0.00 94 1018.5
20260906080048 17 0 0.0 3.2 0.00 0.00 0.00 94 1018.6
20260906075533 17 0 0.0 3.2 0.00 0.00 0.00 94 1018.6
20260906075030 17 20 0.0 3.2 0.00 0.00 0.00 94 1018.5
20260906074552 17 0 0.0 3.2 0.00 0.00 0.00 94 1018.6
20260906074033 17 0 0.0 3.2 0.00 0.00 0.00 95 1018.7
20260906073530 17 15 1.6 3.2 0.00 0.00 0.00 95 1018.6
20260906073049 17 0 0.0 3.2 0.00 0.00 0.00 94 1018.6
20260906072529 17 0 0.0 3.2 0.00 0.00 0.00 94 1018.6
20260906072032 17 0 0.0 1.6 0.00 0.00 0.00 94 1018.7
20260906071558 17 0 0.0 1.6 0.00 0.00 0.00 95 1018.5
20260906071031 17 0 0.0 1.6 0.00 0.00 0.00 95 1018.7
20260906070532 17 0 0.0 3.2 0.00 0.00 0.00 95 1018.7
20260906070058 17 0 0.0 3.2 0.00 0.00 0.00 94 1018.7
20260906065532 17 13 0.0 3.2 0.00 0.00 0.00 94 1018.8
20260906065027 17 9 0.0 3.2 0.00 0.00 0.00 94 1019.0
20260906064551 17 15 0.0 3.2 0.00 0.00 0.00 95 1018.9
20260906064029 17 0 0.0 3.2 0.00 0.00 0.00 95 1018.9
20260906063530 17 0 0.0 3.2 0.00 0.00 0.00 95 1019.1
20260906063050 18 0 0.0 1.6 0.00 0.00 0.00 94 1019.0
20260906062531 18 0 0.0 1.6 0.00 0.00 0.00 95 1018.9
20260906062030 17 0 0.0 1.6 0.00 0.00 0.00 95 1019.1
20260906061550 17 0 0.0 1.6 0.00 0.00 0.00 94 1019.1
20260906061030 17 0 0.0 0.0 0.00 0.00 0.00 94 1019.1
20260906060531 17 0 0.0 0.0 0.00 0.00 0.00 94 1018.9
20260906055531 18 0 0.0 0.0 0.00 0.00 0.00 94 1018.9
20260906055030 18 0 0.0 1.6 0.00 0.00 0.00 94 1018.8
20260906054556 18 0 0.0 1.6 0.00 0.00 0.00 94 1018.7
20260906054030 18 0 0.0 3.2 0.00 0.00 0.00 94 1018.8
20260906053528 18 0 0.0 3.2 0.00 0.00 0.00 94 1018.8
20260906053051 18 352 0.0 1.6 0.00 0.00 0.00 94 1018.8
20260906052530 18 0 0.0 0.0 0.00 0.00 0.00 94 1018.9
20260906052031 18 0 0.0 0.0 0.00 0.00 0.00 94 1018.9
20260906051553 18 0 0.0 0.0 0.00 0.00 0.00 93 1018.9
20260906051031 18 0 0.0 0.0 0.00 0.00 0.00 93 1018.9
20260906050534 18 0 0.0 3.2 0.00 0.00 0.00 94 1018.8
20260906050126 18 0 0.0 3.2 0.00 0.00 0.00 93 1018.9
20260906045530 18 352 0.0 0.0 0.00 0.00 0.00 93 1018.8
20260906045030 18 0 0.0 1.6 0.00 0.00 0.00 93 1018.7
20260906044555 18 0 0.0 1.6 0.00 0.00 0.00 94 1018.7
20260906044033 18 0 0.0 1.6 0.00 0.00 0.00 93 1018.5
20260906043530 18 0 0.0 1.6 0.00 0.00 0.00 93 1018.6
20260906043101 18 0 0.0 1.6 0.00 0.00 0.00 93 1018.6
20260906042531 18 0 0.0 1.6 0.00 0.00 0.00 93 1018.4
20260906042030 18 0 0.0 3.2 0.00 0.00 0.00 93 1018.4
20260906041549 18 0 0.0 3.2 0.00 0.00 0.00 93 1018.4
20260906041027 18 352 0.0 3.2 0.00 0.00 0.00 93 1018.3
20260906040528 18 0 0.0 3.2 0.00 0.00 0.00 93 1018.2
20260906040059 18 0 0.0 1.6 0.00 0.00 0.00 93 1018.0
20260906035530 18 0 0.0 1.6 0.00 0.00 0.00 92 1018.1
20260906035030 18 0 0.0 0.0 0.00 0.00 0.00 92 1018.1
20260906034553 19 0 0.0 0.0 0.00 0.00 0.00 92 1018.0
20260906034030 19 0 0.0 0.0 0.00 0.00 0.00 92 1018.0
20260906033529 19 0 0.0 0.0 0.00 0.00 0.00 92 1018.0
20260906033049 19 0 0.0 0.0 0.00 0.00 0.00 92 1018.0
20260906032530 19 0 0.0 0.0 0.00 0.00 0.00 92 1018.1
20260906032032 19 0 0.0 0.0 0.00 0.00 0.00 91 1018.1
20260906031556 19 0 0.0 0.0 0.00 0.00 0.00 91 1018.0
20260906031031 20 0 0.0 1.6 0.00 0.00 0.00 91 1018.0
20260906030533 20 0 0.0 1.6 0.00 0.00 0.00 91 1018.1
20260906030107 20 0 0.0 3.2 0.00 0.00 0.00 91 1018.0
20260906025530 20 0 0.0 3.2 0.00 0.00 0.00 91 1018.0
20260906025031 20 0 0.0 1.6 0.00 0.00 0.00 91 1018.0
20260906024550 20 0 0.0 1.6 0.00 0.00 0.00 90 1018.0
20260906024028 20 0 0.0 1.6 0.00 0.00 0.00 90 1018.0
20260906023533 20 0 0.0 1.6 0.00 0.00 0.00 90 1018.0
20260906023047 20 0 0.0 4.8 0.00 0.00 0.00 90 1017.9
20260906022529 20 36 0.0 4.8 0.00 0.00 0.00 90 1017.7
20260906022031 20 0 0.0 3.2 0.00 0.00 0.00 90 1017.6
20260906021607 20 0 0.0 1.6 0.00 0.00 0.00 89 1017.6
20260906021030 20 0 0.0 3.2 0.00 0.00 0.00 89 1017.4
20260906020531 20 0 0.0 3.2 0.00 0.00 0.00 89 1017.3
20260906020053 21 0 0.0 3.2 0.00 0.00 0.00 89 1017.2
20260906015529 21 0 0.0 3.2 0.00 0.00 0.00 89 1017.1
20260906015028 21 28 0.0 4.8 0.00 0.00 0.00 89 1017.1
20260906014554 21 0 0.0 4.8 0.00 0.00 0.00 88 1017.1
20260906014027 21 0 0.0 4.8 0.00 0.00 0.00 88 1017.1
20260906013530 21 31 1.6 8.0 0.00 0.00 0.00 88 1016.9
20260906013052 21 0 0.0 8.0 0.00 0.00 0.00 88 1016.8
20260906012529 21 0 0.0 8.0 0.00 0.00 0.00 88 1016.7
20260906012030 21 0 0.0 6.4 0.00 0.00 0.00 88 1016.8
20260906011550 21 0 0.0 6.4 0.00 0.00 0.00 88 1016.8
20260906011031 22 15 0.0 6.4 0.00 0.00 0.00 88 1016.9
20260906010528 22 0 0.0 6.4 0.00 0.00 0.00 88 1016.8
20260906010053 22 0 0.0 3.2 0.00 0.00 0.00 88 1016.7
20260906005533 22 15 0.0 6.4 0.00 0.00 0.00 88 1016.8
20260906005028 22 42 0.0 6.4 0.00 0.00 0.00 88 1016.8
20260906004559 22 0 0.0 6.4 0.00 0.00 0.00 88 1016.8
20260906004032 22 38 0.0 9.7 0.00 0.00 0.00 87 1016.6
20260906003528 22 347 1.6 9.7 0.00 0.00 0.00 87 1016.6
20260906003104 22 41 1.6 8.0 0.00 0.00 0.00 86 1016.7
20260906002541 22 0 1.6 9.7 0.00 0.00 0.00 86 1016.7
20260906002031 22 0 1.6 9.7 0.00 0.00 0.00 85 1016.8
20260906001553 23 0 3.2 9.7 0.00 0.00 0.00 85 1016.9
20260906001030 23 0 0.0 14.5 0.00 0.00 0.00 84 1017.0
20260906000533 23 26 3.2 14.5 0.00 0.00 0.00 84 1016.9
20260906000049 23 0 0.0 6.4 0.00 0.00 0.00 83 1017.0
20260905235530 23 0 0.0 6.4 0.00 0.00 0.00 83 1017.0
20260905235033 23 0 0.0 6.4 0.00 0.00 0.00 82 1017.1
20260905234554 23 32 0.0 6.4 0.00 0.00 0.00 81 1017.0
20260905234030 24 25 1.6 8.0 0.00 0.00 0.00 81 1016.9
20260905233530 24 48 1.6 8.0 0.00 0.00 0.00 81 1016.8
20260905233053 24 9 1.6 9.7 0.00 0.00 0.00 81 1016.8
20260905232528 24 0 1.6 9.7 0.00 0.00 0.00 81 1016.7
20260905232029 24 30 1.6 11.3 0.00 0.00 0.00 80 1016.9
20260905231548 24 57 3.2 11.3 0.00 0.00 0.00 80 1017.0
20260905231028 24 0 1.6 8.0 0.00 0.00 0.00 79 1016.9
20260905230528 25 84 1.6 8.0 0.00 0.00 0.00 79 1017.0
20260905230053 25 0 1.6 9.7 0.00 0.00 0.00 79 1017.0
20260905225529 25 28 3.2 11.3 0.00 0.00 0.00 78 1016.9
20260905225030 25 0 3.2 11.3 0.00 0.00 0.00 80 1016.9
20260905224551 25 342 1.6 9.7 0.00 0.00 0.00 80 1017.0
20260905224032 25 350 1.6 9.7 0.00 0.00 0.00 80 1017.0
20260905223528 25 36 1.6 11.3 0.00 0.00 0.00 79 1017.0
20260905223051 25 34 3.2 11.3 0.00 0.00 0.00 78 1016.7
20260905222531 25 34 1.6 8.0 0.00 0.00 0.00 78 1016.5
20260905222029 25 50 1.6 16.1 0.00 0.00 0.00 76 1016.6
20260905221600 25 0 3.2 16.1 0.00 0.00 0.00 76 1016.6
20260905221030 25 28 1.6 9.7 0.00 0.00 0.00 77 1016.6
20260905220531 25 26 1.6 11.3 0.00 0.00 0.00 77 1016.5
20260905220055 25 352 3.2 12.9 0.00 0.00 0.00 77 1016.5
20260905215530 25 9 3.2 12.9 0.00 0.00 0.00 75 1016.6
20260905215029 25 48 3.2 11.3 0.00 0.00 0.00 76 1016.7
20260905214602 25 347 3.2 12.9 0.00 0.00 0.00 77 1016.6
20260905214029 25 340 3.2 12.9 0.00 0.00 0.00 78 1016.6
20260905213531 25 40 3.2 11.3 0.00 0.00 0.00 78 1016.6
20260905213050 25 13 3.2 11.3 0.00 0.00 0.00 77 1016.6
20260905212529 25 18 3.2 14.5 0.00 0.00 0.00 77 1016.7
20260905212053 25 352 3.2 14.5 0.00 0.00 0.00 77 1016.7
20260905211548 26 41 3.2 12.9 0.00 0.00 0.00 75 1016.8
20260905211030 26 40 3.2 9.7 0.00 0.00 0.00 78 1016.6
20260905210533 26 352 1.6 9.7 0.00 0.00 0.00 78 1016.8
20260905210055 26 30 1.6 12.9 0.00 0.00 0.00 77 1016.7
20260905205530 26 63 4.8 12.9 0.00 0.00 0.00 77 1016.7
20260905205030 25 17 1.6 9.7 0.00 0.00 0.00 80 1016.6
20260905204552 25 33 3.2 14.5 0.00 0.00 0.00 79 1016.6
20260905204028 25 352 3.2 14.5 0.00 0.00 0.00 78 1016.5
20260905203528 26 344 4.8 14.5 0.00 0.00 0.00 79 1016.4
20260905203048 26 34 4.8 12.9 0.00 0.00 0.00 76 1016.3
20260905202529 26 9 1.6 14.5 0.00 0.00 0.00 78 1016.2
20260905202029 26 352 4.8 14.5 0.00 0.00 0.00 79 1016.5
20260905201605 25 360 4.8 14.5 0.00 0.00 0.00 79 1016.5
20260905201028 25 63 3.2 16.1 0.00 0.00 0.00 79 1016.6
20260905200530 25 26 3.2 16.1 0.00 0.00 0.00 80 1016.7
20260905200057 25 36 4.8 16.1 0.00 0.00 0.00 79 1016.6
20260905195529 25 26 1.6 9.7 0.00 0.00 0.00 80 1016.7
20260905195030 25 346 1.6 16.1 0.00 0.00 0.00 79 1016.7
20260905194555 25 42 3.2 16.1 0.00 0.00 0.00 78 1016.9
20260905194029 25 40 4.8 16.1 0.00 0.00 0.00 78 1016.7
20260905193528 25 305 4.8 16.1 0.00 0.00 0.00 79 1016.8
20260905193047 25 360 3.2 12.9 0.00 0.00 0.00 79 1016.9
20260905192528 25 30 1.6 16.1 0.00 0.00 0.00 78 1017.0
20260905192033 25 51 3.2 16.1 0.00 0.00 0.00 78 1016.9
20260905191612 25 23 3.2 16.1 0.00 0.00 0.00 78 1016.8
20260905191031 25 20 1.6 16.1 0.00 0.00 0.00 78 1016.9
20260905190530 25 76 3.2 16.1 0.00 0.00 0.00 79 1017.0
20260905190054 25 50 3.2 9.7 0.00 0.00 0.00 80 1016.9
20260905185531 24 53 1.6 11.3 0.00 0.00 0.00 80 1017.1
20260905185028 24 34 3.2 14.5 0.00 0.00 0.00 81 1017.0
20260905184606 24 13 3.2 14.5 0.00 0.00 0.00 80 1017.1
20260905184035 24 11 4.8 14.5 0.00 0.00 0.00 81 1017.1
20260905183531 24 31 3.2 17.7 0.00 0.00 0.00 82 1017.0
20260905183050 24 36 4.8 19.3 0.00 0.00 0.00 83 1017.1
20260905182528 24 33 4.8 19.3 0.00 0.00 0.00 83 1017.1
20260905182028 24 352 6.4 19.3 0.00 0.00 0.00 82 1017.1
20260905181555 23 30 1.6 11.3 0.00 0.00 0.00 84 1017.1
20260905181030 23 0 3.2 11.3 0.00 0.00 0.00 84 1017.3
20260905180532 23 32 3.2 11.3 0.00 0.00 0.00 85 1017.2
20260905180055 23 30 1.6 12.9 0.00 0.00 0.00 84 1017.2
20260905175530 23 38 4.8 12.9 0.00 0.05 0.00 84 1017.2
20260905175031 23 42 4.8 20.9 0.00 0.05 0.00 84 1017.3
20260905174554 23 22 4.8 20.9 0.00 0.05 0.00 83 1017.3
20260905174031 23 20 1.6 12.9 0.00 0.05 0.00 85 1017.4
20260905173530 23 155 3.2 6.4 0.00 0.05 0.00 85 1017.2
20260905173053 23 38 1.6 6.4 0.00 0.05 0.00 86 1017.2
20260905172530 23 0 0.0 6.4 0.00 0.05 0.00 86 1017.4
20260905172032 23 0 0.0 6.4 0.00 0.05 0.00 85 1017.3
20260905171547 23 15 1.6 6.4 0.00 0.05 0.00 85 1017.3
20260905171030 23 32 0.0 6.4 0.00 0.05 0.00 86 1017.4
20260905170529 23 25 1.6 8.0 0.00 0.05 0.00 86 1017.3
20260905170052 23 0 1.6 8.0 0.00 0.05 0.00 87 1017.3
20260905165529 23 0 0.0 8.0 0.00 0.05 0.00 88 1017.4
20260905165030 23 30 1.6 8.0 0.00 0.05 0.00 88 1017.5
20260905164552 22 19 1.6 11.3 0.00 0.05 0.00 88 1017.5
20260905164030 22 0 1.6 11.3 0.00 0.05 0.00 89 1017.4
20260905163530 22 30 1.6 6.4 0.00 0.05 0.00 89 1017.4
20260905163052 22 360 0.0 6.4 0.00 0.05 0.00 89 1017.4
20260905162528 22 0 0.0 12.9 0.00 0.05 0.00 89 1017.4
20260905162030 22 47 1.6 12.9 0.00 0.05 0.00 89 1017.4
20260905161548 22 360 1.6 8.0 0.00 0.05 0.00 90 1017.4
20260905161030 22 0 0.0 8.0 0.00 0.05 0.00 90 1017.3
20260905160530 22 39 3.2 8.0 0.00 0.05 0.00 90 1017.4
20260905160058 22 0 1.6 8.0 0.00 0.05 0.00 90 1017.4
20260905155531 22 0 3.2 6.4 0.00 0.05 0.00 90 1017.4
20260905155031 22 331 1.6 6.4 0.00 0.05 0.00 91 1017.3
20260905154555 22 20 1.6 9.7 0.00 0.05 0.00 91 1017.3
20260905154032 22 26 1.6 9.7 0.00 0.05 0.00 91 1017.3
20260905153531 21 0 1.6 8.0 0.00 0.05 0.00 91 1017.3
20260905153054 21 5 1.6 8.0 0.00 0.05 0.00 91 1017.4
20260905152528 21 39 1.6 8.0 0.00 0.05 0.00 91 1017.4
20260905152033 21 46 0.0 6.4 0.00 0.05 0.00 91 1017.3
20260905151558 21 43 0.0 12.9 0.00 0.05 0.00 91 1017.2
20260905151032 21 18 1.6 12.9 0.00 0.05 0.00 92 1017.1
20260905150532 21 0 1.6 9.7 0.00 0.05 0.00 92 1017.1
20260905150052 21 22 1.6 12.9 0.00 0.05 0.00 92 1017.1
20260905145531 21 0 1.6 12.9 0.00 0.08 0.00 92 1016.9
20260905145030 21 0 1.6 9.7 0.00 0.08 0.00 92 1016.7
20260905144552 21 30 3.2 9.7 0.00 0.08 0.00 92 1016.7
20260905144028 21 27 3.2 12.9 0.00 0.08 0.00 92 1016.7
20260905143530 21 42 3.2 14.5 0.00 0.08 0.00 92 1016.7
20260905143049 21 57 3.2 14.5 0.00 0.08 0.00 93 1016.5
20260905142528 21 28 3.2 11.3 0.00 0.08 0.00 93 1016.4
20260905142033 21 78 3.2 11.3 0.00 0.08 0.00 93 1016.3
20260905141610 21 44 3.2 11.3 0.00 0.08 0.00 93 1016.3
20260905141031 21 32 3.2 9.7 0.00 0.08 0.00 93 1016.4
20260905140532 21 82 1.6 11.3 0.00 0.08 0.00 93 1016.3
20260905135528 21 50 1.6 11.3 0.00 0.08 0.00 94 1016.1
20260905135029 21 57 1.6 12.9 0.00 0.08 0.00 94 1016.1
20260905134604 21 21 3.2 12.9 0.00 0.08 0.00 94 1015.9
20260905134030 21 39 3.2 12.9 0.00 0.08 0.00 95 1015.9
20260905133533 21 58 1.6 14.5 0.00 0.08 0.00 95 1015.7
20260905133055 21 28 3.2 14.5 0.00 0.08 0.00 95 1015.9
20260905132530 21 28 1.6 9.7 0.00 0.08 0.00 95 1015.9
20260905132030 21 67 0.0 12.9 0.00 0.08 0.00 95 1015.9
20260905131555 21 67 3.2 12.9 0.00 0.08 0.00 95 1015.9
20260905131034 21 67 3.2 12.9 0.00 0.08 0.00 95 1015.8
20260905130529 21 0 3.2 12.9 0.00 0.08 0.00 95 1015.9
20260905130055 21 22 3.2 9.7 0.00 0.08 0.00 95 1015.8
20260905125528 21 26 3.2 9.7 0.00 0.08 0.00 95 1015.9
20260905125031 21 19 1.6 8.0 0.00 0.08 0.00 95 1015.7
20260905124551 21 23 1.6 11.3 0.00 0.08 0.00 96 1015.8
20260905124033 20 24 3.2 11.3 0.00 0.08 0.00 96 1015.9
20260905123530 20 30 1.6 8.0 0.00 0.08 0.00 96 1015.9